This is the latest recevied weather packets stored in our database for station/object KQ4NAL. If no packets are shown the sender has not sent any weather packets the latest 1 day(s).
| Time | Temp. | Humidity | Pressure | Rain* | Wind** | Luminosity | Snow |
|---|---|---|---|---|---|---|---|
| 1836274755 | 17.78° C | 84% | 1019.2 hPa | 0 mm | 0 m/s | 0 W/m² | - |
| 1836274453 | 17.78° C | 83% | 1019.2 hPa | 0 mm | 0 m/s | 0 W/m² | - |
| 1836274306 | 17.78° C | 84% | 1019 hPa | 0 mm | 0 m/s | 0 W/m² | - |
| 1836274151 | 18.33° C | 81% | 1019 hPa | 0 mm | 0 m/s | 0 W/m² | - |
| 1778041007 | 14.44° C | 99% | 1007.7 hPa | 1.78 mm | 0.45 m/s, 233° | 0 W/m² | - |
| 1778040703 | 14.44° C | 99% | 1008 hPa | 0 mm | 0.45 m/s, 7° | 0 W/m² | - |
| 1778040401 | 15° C | 99% | 1007.6 hPa | 0 mm | 2.24 m/s, 208° | 0 W/m² | - |
| 1778040098 | 15° C | 99% | 1007.6 hPa | 0 mm | 0 m/s | 0 W/m² | - |
| 1778039795 | 15° C | 99% | 1007.6 hPa | 0 mm | 0 m/s | 0 W/m² | - |
| 1778039491 | 15° C | 99% | 1007.7 hPa | 0 mm | 1.34 m/s, 216° | 0 W/m² | - |
| 1778039189 | 15° C | 99% | 1008 hPa | 0 mm | 0 m/s | 0 W/m² | - |
| 1778038885 | 15° C | 99% | 1007.8 hPa | 0 mm | 0 m/s | 0 W/m² | - |
| 1778038583 | 15° C | 99% | 1007.9 hPa | 0 mm | 0 m/s | 0 W/m² | - |
| 1778038280 | 15° C | 99% | 1008 hPa | 0 mm | 0 m/s | 0 W/m² | - |
| 1778037977 | 15° C | 99% | 1007.8 hPa | 0 mm | 0 m/s | 0 W/m² | - |
| 1778037674 | 15° C | 99% | 1008.1 hPa | 0 mm | 0 m/s | 0 W/m² | - |
| 1778037371 | 15° C | 99% | 1008.2 hPa | 0 mm | 0 m/s | 0 W/m² | - |
| 1778037068 | 15° C | 99% | 1008.2 hPa | 1.78 mm | 0 m/s | 0 W/m² | - |
| 1778036766 | 15° C | 99% | 1008.1 hPa | 1.78 mm | 0 m/s | 0 W/m² | - |
| 1778036463 | 15° C | 99% | 1008.2 hPa | 0 mm | 0 m/s | 0 W/m² | - |
| 1778036160 | 15° C | 99% | 1007.9 hPa | 0 mm | 0 m/s | 0 W/m² | - |
| 1778035856 | 15° C | 99% | 1008 hPa | 3.05 mm | 0 m/s | 0 W/m² | - |
| 1778035554 | 15° C | 99% | 1008.1 hPa | 7.11 mm | 0 m/s | 0 W/m² | - |
| 1778035250 | 15° C | 99% | 1008.5 hPa | 7.11 mm | 0 m/s | 0 W/m² | - |
| 1778034945 | 15° C | 99% | 1008.7 hPa | 7.87 mm | 0 m/s | 0 W/m² | - |
* Rain latest hour (hover to see other rain measurements)
** Current wind speed in m/s (hover to see current wind gust speed)